GW4050 Weather Reports


time (UTC)temp
C
wind
direction
speed
KPH
gust
KPH
rain 1hr
cm
rain 24hr
cm
rain mn
cm
humidity
%
barometer
mb
20260508122320 17 317 0.0 3.2 0.00 0.00 0.00 55 1016.6
20260508121318 16 317 0.0 4.8 0.00 0.00 0.00 57 1016.7
20260508120338 16 0.0 0.0 0.00 0.00 0.00 56 1016.8
20260508115338 15 0.0 0.0 0.00 0.00 0.00 60 1016.9
20260508114317 15 152 1.6 4.8 0.00 0.00 0.00 62 1016.9
20260508113317 15 12 0.0 3.2 0.00 0.00 0.00 65 1016.9
20260508112317 14 0.0 0.0 0.00 0.00 0.00 65 1016.9
20260508111441 13 0.0 0.0 0.00 0.00 0.00 66 1016.9
20260508110319 13 133 0.0 1.6 0.00 0.00 0.00 67 1016.8
20260508105317 13 0.0 0.0 0.00 0.00 0.00 68 1016.9
20260508104317 13 0.0 0.0 0.00 0.00 0.00 70 1016.9
20260508103318 13 130 1.6 3.2 0.00 0.00 0.00 68 1017.0
20260508102338 13 120 3.2 4.8 0.00 0.00 0.00 68 1017.0
20260508101318 12 176 0.0 1.6 0.00 0.00 0.00 70 1017.0
20260508100319 12 123 4.8 6.4 0.00 0.00 0.00 71 1017.0
20260508095320 12 109 1.6 3.2 0.00 0.00 0.00 70 1016.9
20260508094318 12 120 1.6 3.2 0.00 0.00 0.00 72 1016.9
20260508093319 12 138 1.6 4.8 0.00 0.00 0.00 71 1017.0
20260508092359 12 106 4.8 6.4 0.00 0.00 0.00 70 1017.0
20260508091319 12 111 3.2 4.8 0.00 0.00 0.00 69 1016.9
20260508090319 12 0.0 0.0 0.00 0.00 0.00 72 1016.9
20260508085319 12 0.0 0.0 0.00 0.00 0.00 72 1016.9
20260508084319 11 0.0 0.0 0.00 0.00 0.00 72 1016.8
20260508083319 11 123 3.2 3.2 0.00 0.00 0.00 73 1016.7
20260508082320 11 112 0.0 1.6 0.00 0.00 0.00 75 1016.6
20260508081320 10 0.0 0.0 0.00 0.00 0.00 78 1016.6
20260508080340 10 150 1.6 3.2 0.00 0.00 0.00 79 1016.6
20260508075340 10 0.0 0.0 0.00 0.00 0.00 80 1016.4
20260508074323 9 116 0.0 1.6 0.00 0.00 0.00 81 1016.4
20260508073321 9 0.0 0.0 0.00 0.00 0.00 82 1016.4
20260508072320 8 130 0.0 3.2 0.00 0.00 0.00 82 1016.4
20260508071317 8 131 3.2 6.4 0.00 0.00 0.00 82 1016.3
20260508070317 8 0.0 0.0 0.00 0.00 0.00 83 1016.3
20260508065337 8 133 1.6 4.8 0.00 0.00 0.00 85 1016.2
20260508064320 8 0.0 0.0 0.00 0.00 0.00 86 1016.2
20260508063317 8 0.0 0.0 0.00 0.00 0.00 86 1016.0
20260508062317 8 0.0 0.0 0.00 0.00 0.00 85 1015.9
20260508061317 8 0.0 0.0 0.00 0.00 0.00 84 1015.9
20260508060318 7 0.0 0.0 0.00 0.00 0.00 85 1015.8
20260508055318 7 172 1.6 4.8 0.00 0.00 0.00 86 1015.7
20260508054358 7 0.0 0.0 0.00 0.00 0.00 86 1015.7
20260508053338 7 0.0 0.0 0.00 0.00 0.00 86 1015.6
20260508052318 7 138 0.0 3.2 0.00 0.00 0.00 86 1015.5
20260508051318 7 0.0 0.0 0.00 0.00 0.00 86 1015.4
20260508050319 6 103 0.0 3.2 0.00 0.00 0.00 86 1015.3
20260508045319 6 112 0.0 3.2 0.00 0.00 0.00 86 1015.3
20260508044336 7 94 0.0 4.8 0.00 0.00 0.00 85 1015.2
20260508043316 7 0.0 0.0 0.00 0.00 0.00 84 1015.2
20260508042319 7 0.0 0.0 0.00 0.00 0.00 85 1015.3
20260508041319 7 157 1.6 6.4 0.00 0.00 0.00 85 1015.3
20260508040319 7 142 1.6 3.2 0.00 0.00 0.00 85 1015.3
20260508035317 6 0.0 0.0 0.00 0.00 0.00 85 1015.3
20260508034317 6 0.0 0.0 0.00 0.00 0.00 85 1015.2
20260508033318 7 132 0.0 0.0 0.00 0.00 0.00 85 1015.2
20260508032317 7 0.0 0.0 0.00 0.00 0.00 85 1015.3
20260508031318 7 134 1.6 4.8 0.00 0.00 0.00 84 1015.3
20260508030318 7 119 3.2 9.7 0.00 0.00 0.00 84 1015.3
20260508025318 7 181 1.6 6.4 0.00 0.00 0.00 84 1015.3
20260508024318 7 133 0.0 3.2 0.00 0.00 0.00 84 1015.3
20260508023318 7 110 3.2 6.4 0.00 0.00 0.00 84 1015.3
20260508022318 7 173 1.6 6.4 0.00 0.00 0.00 84 1015.2
20260508021319 7 143 1.6 4.8 0.00 0.00 0.00 83 1015.2
20260508020318 7 120 6.4 8.0 0.00 0.00 0.00 83 1015.2
20260508015319 7 121 4.8 8.0 0.00 0.00 0.00 83 1015.3
20260508014319 7 116 1.6 4.8 0.00 0.00 0.00 83 1015.3
20260508013317 7 122 1.6 6.4 0.00 0.00 0.00 82 1015.3
20260508012316 7 133 0.0 3.2 0.00 0.00 0.00 82 1015.3
20260508011317 8 127 0.0 1.6 0.00 0.00 0.00 81 1015.3
20260508010316 8 138 1.6 4.8 0.00 0.00 0.00 81 1015.2
20260508005320 8 142 0.0 1.6 0.00 0.00 0.00 81 1015.2
20260508004400 8 112 0.0 1.6 0.00 0.00 0.00 81 1015.2
20260508003317 8 134 0.0 4.8 0.00 0.00 0.00 81 1015.1
20260508002318 8 128 1.6 6.4 0.00 0.00 0.00 80 1015.2
20260508001317 8 164 0.0 0.0 0.00 0.00 0.00 80 1015.2
20260508000320 8 130 4.8 8.0 0.00 0.00 0.00 81 1015.3
20260507235318 8 131 3.2 8.0 0.00 0.00 0.00 82 1015.3
20260507234338 8 129 0.0 3.2 0.00 0.00 0.00 82 1015.4
20260507233318 8 0.0 0.0 0.00 0.00 0.00 82 1015.4
20260507232318 8 0.0 0.0 0.00 0.00 0.00 81 1015.4
20260507231319 9 0.0 0.0 0.00 0.00 0.00 80 1015.4
20260507230339 9 0.0 0.0 0.00 0.00 0.00 79 1015.4
20260507225316 9 150 0.0 3.2 0.00 0.00 0.00 79 1015.4
20260507224316 10 0.0 0.0 0.00 0.00 0.00 78 1015.4
20260507223319 10 0.0 0.0 0.00 0.00 0.00 78 1015.3
20260507222320 10 150 0.0 4.8 0.00 0.00 0.00 78 1015.3
20260507221340 10 0.0 0.0 0.00 0.00 0.00 78 1015.3
20260507220317 10 166 1.6 4.8 0.00 0.00 0.00 78 1015.3
20260507215337 10 0.0 0.0 0.00 0.00 0.00 78 1015.3
20260507214318 10 0.0 0.0 0.00 0.00 0.00 78 1015.3
20260507213317 10 174 1.6 4.8 0.00 0.00 0.00 79 1015.2
20260507212317 10 189 1.6 4.8 0.00 0.00 0.00 79 1015.3
20260507211318 10 0.0 0.0 0.00 0.00 0.00 79 1015.2
20260507210318 10 0.0 0.0 0.00 0.00 0.00 78 1015.2
20260507205318 10 0.0 0.0 0.00 0.00 0.00 78 1015.1
20260507204318 10 0.0 0.0 0.00 0.00 0.00 77 1015.0
20260507203318 10 0.0 0.0 0.00 0.00 0.00 76 1014.9
20260507202318 10 0.0 0.0 0.00 0.00 0.00 75 1014.8
20260507201319 10 0.0 0.0 0.00 0.00 0.00 74 1014.8
20260507200318 10 75 0.0 3.2 0.00 0.00 0.00 75 1014.6
20260507195319 11 0.0 0.0 0.00 0.00 0.00 73 1014.6
20260507194320 11 0.0 0.0 0.00 0.00 0.00 71 1014.5
20260507193316 11 0.0 0.0 0.00 0.00 0.00 71 1014.4
20260507192316 11 138 0.0 3.2 0.00 0.00 0.00 70 1014.3
20260507191319 11 200 3.2 6.4 0.00 0.00 0.00 68 1014.4
20260507190320 12 171 3.2 6.4 0.00 0.00 0.00 66 1014.3
20260507185317 12 213 3.2 6.4 0.00 0.00 0.00 66 1014.2
20260507184317 12 215 3.2 6.4 0.00 0.00 0.00 68 1014.2
20260507183317 12 216 3.2 6.4 0.00 0.00 0.00 67 1014.1
20260507182337 12 210 3.2 8.0 0.00 0.00 0.00 74 1014.1
20260507181317 12 0.0 0.0 0.00 0.00 0.00 78 1014.1
20260507180318 12 0.0 0.0 0.00 0.00 0.00 79 1014.1
20260507175318 12 118 1.6 4.8 0.00 0.00 0.00 78 1014.0
20260507174318 12 139 1.6 6.4 0.00 0.00 0.00 77 1014.1
20260507173318 12 94 1.6 4.8 0.00 0.00 0.00 76 1014.1
20260507172319 12 125 6.4 9.7 0.00 0.00 0.00 75 1014.1
20260507171316 13 197 3.2 6.4 0.00 0.00 0.00 71 1014.1
20260507170316 13 204 3.2 6.4 0.00 0.00 0.00 71 1014.0
20260507165319 13 220 6.4 9.7 0.00 0.00 0.00 69 1014.1
20260507164320 13 229 1.6 4.8 0.00 0.00 0.00 69 1014.1
20260507163339 12 198 0.0 4.8 0.00 0.00 0.00 72 1014.0
20260507162317 12 221 1.6 6.4 0.00 0.00 0.00 76 1014.1
20260507161317 12 206 0.0 3.2 0.00 0.00 0.00 78 1014.1
20260507160317 11 184 0.0 3.2 0.00 0.00 0.00 78 1014.1
20260507155317 12 314 0.0 3.2 0.00 0.00 0.00 78 1014.0
20260507154320 11 0.0 0.0 0.00 0.00 0.00 78 1014.1
20260507153317 12 0.0 0.0 0.00 0.00 0.00 77 1014.1
20260507152318 12 190 0.0 1.6 0.00 0.00 0.00 75 1014.1
20260507151337 12 285 0.0 3.2 0.00 0.00 0.00 71 1014.1
20260507150318 13 222 0.0 4.8 0.00 0.00 0.00 68 1014.1
20260507145339 13 154 1.6 9.7 0.00 0.00 0.00 67 1014.0
20260507144318 13 110 3.2 6.4 0.00 0.00 0.00 65 1014.0
20260507143318 13 134 0.0 3.2 0.00 0.00 0.00 63 1014.0
20260507142318 13 172 3.2 6.4 0.00 0.00 0.00 63 1014.2
20260507141319 13 168 3.2 8.0 0.00 0.00 0.00 64 1014.3
20260507140319 13 175 3.2 6.4 0.00 0.00 0.00 65 1014.4
20260507135319 13 153 1.6 4.8 0.00 0.00 0.00 64 1014.4
20260507134336 13 130 0.0 1.6 0.00 0.00 0.00 64 1014.4
20260507133316 13 177 0.0 3.2 0.00 0.00 0.00 64 1014.4
20260507132320 13 96 1.6 4.8 0.00 0.00 0.00 64 1014.4
20260507131319 13 117 4.8 9.7 0.00 0.00 0.00 64 1014.5
20260507130317 13 117 4.8 8.0 0.00 0.00 0.00 64 1014.5
20260507125317 13 115 4.8 6.4 0.00 0.00 0.00 62 1014.5
20260507124318 14 117 6.4 11.3 0.00 0.00 0.00 62 1014.4
20260507123357 14 159 3.2 8.0 0.00 0.00 0.00 60 1014.5